Regional Weather Roundup
Issued by NWS

Home | Current Version | Previous Version | Text Only | Print | Product List | Glossary Off
Versions: 1 2 3 4 5 6 7 8 9 10 11 12 13 14 15 16 17 18 19 20 21 22 23 24 25 26 27 28 29 30 31 32 33 34 35 36 37 38 39 40 41 42 43 44 45 46 47 48 49 50

305
ASUS43 KIND 240859
RWRIN

WEATHER ROUNDUP FOR INDIANA
NATIONAL WEATHER SERVICE INDIANAPOLIS IN
400 AM EST FRI NOV 24 2017

NOTE: "FAIR" INDICATES FEW OR NO CLOUDS BELOW 12,000 FEET WITH NO
SIGNIFICANT WEATHER AND/OR OBSTRUCTIONS TO VISIBILITY.

* - STATION DOES NOT REPORT WEATHER SUCH AS PRECIPITATION OR FOG.

+ - STATION NOT QUALITY CONTROLLED BY THE NATIONAL WEATHER SERVICE.
    USE DATA WITH CAUTION...ESPECIALLY DEWPOINT AND RELATIVE
    HUMIDITY OBSERVATIONS.

INZ001>003-010>013-019-020-241000-
NORTHWEST INDIANA

CITY           SKY/WX    TMP DP  RH WIND       PRES   REMARKS
KNOX *+        CLEAR     32  27  80 S8        29.88F WCI  25
MICHIGAN CITY+ CLEAR     34  27  75 S5        29.86F WCI  30
MONTICELLO +   CLEAR     33  23  66 S5        29.90F WCI  28
RENSSELAER +   CLEAR     32  23  69 S5        29.89F WCI  27

$$

LMZ046-743>745-241000-
SOUTHERN LAKE MICHIGAN

STATION/POSITION TIME  TEMP    WIND        PRES    WAVE
                       AIR SEA DIR/SP/G            HT
                 (UTC) (F)     (DEG/KT/KT) (MB)    (FT)
BURNS HARBOR     0840   35     190/  9/ 11 1011.5F
MICHIGAN CITY    0830   35     170/ 12/ 13   N/A

$$

INZ004-005-014>016-021>024-241000-
NORTH CENTRAL INDIANA

CITY           SKY/WX    TMP DP  RH WIND       PRES   REMARKS
GOSHEN         CLEAR     34  23  64 S10       29.87F WCI  26
PERU/GRISSOM   CLEAR     33  25  74 S8        29.90F WCI  25
SOUTH BEND     CLEAR     32  25  75 S8        29.87F WCI  25
WARSAW +       CLEAR     34  25  69 S5        29.89F WCI  30

$$

INZ006>009-017-018-025>027-241000-
NORTHEAST INDIANA

CITY           SKY/WX    TMP DP  RH WIND       PRES   REMARKS
AUBURN +       CLEAR     32  23  69 S5        29.91F WCI  27
FORT WAYNE     CLEAR     30  24  78 S7        29.91F WCI  23
KENDALLVILLE + CLEAR     32  24  70 SW7       29.89F WCI  26

$$

INZ028-029-035-036-043>045-051>053-241000-
WEST CENTRAL INDIANA

CITY           SKY/WX    TMP DP  RH WIND       PRES   REMARKS
CRAWFORDSVL +  CLEAR     29  24  80 MISG      29.88F
GREENCASTLE +  CLOUDY    32  23  69 S5        29.93F WCI  27
LAFAYETTE      CLEAR     31  24  75 CALM      29.91F
TERRE HAUTE    CLEAR     29  22  75 SE3       29.94S

$$

INZ030>032-037>040-046>048-054>057-064-065-241000-
CENTRAL INDIANA

CITY           SKY/WX    TMP DP  RH WIND       PRES   REMARKS
INDIANAPOLIS   CLOUDY    33  23  66 S7        29.94F WCI  27
-EAGLE CREEK   CLOUDY    28  22  78 CALM      29.93F
KOKOMO +       CLEAR     32  24  72 S8        29.92F WCI  25
SHELBYVILLE    CLOUDY    34  23  64 S8        29.95F WCI  27

$$

INZ033-034-041-042-049-050-058-059-241000-
EAST CENTRAL INDIANA

CITY           SKY/WX    TMP DP  RH WIND       PRES   REMARKS
MUNCIE         CLEAR     35  24  64 S7        29.93F WCI  29
RICHMOND +     CLOUDY    28  27  93 S8        29.96S WCI  20

$$

INZ060-061-067>069-081>083-085>088-241000-
SOUTHWEST INDIANA

CITY           SKY/WX    TMP DP  RH WIND       PRES   REMARKS
EVANSVILLE     CLOUDY    33  26  75 CALM      29.98F
HUNTINGBURG +  CLOUDY    35  24  64 SE7       29.98F WCI  29

$$

INZ062-063-066-070>080-084-089>092-241000-
SOUTH CENTRAL AND SOUTHEAST INDIANA

CITY           SKY/WX    TMP DP  RH WIND       PRES   REMARKS
BLOOMINGTON    CLOUDY    28  21  75 CALM      29.94F
MADISON *+     CLOUDY    30  28  93 CALM      30.01F
SEYMOUR +      CLOUDY    28  23  80 CALM      29.98F

$$





USA.gov is the U.S. government's official web portal to all federal, state and local government web resources and services.